Погода в Мукдахане

Таиланд     16°32′42″N   104°43′40″E
темп.,
°C
ветер,
м/с
пор.,
м/с
влажн.,
%
обл.,
%
осадки,
мм/ч
давл.,
гПа
погр.,
м
24 мая, вт
вт2401:00+25юз4892100 8.8 1005260
04:00+25юз51189100 2.4 1005439
07:00+25юз31087100 2.4 1007408
10:00+27ю3886100 0.0 1008527
13:00+27юв3684100 0.0 1007405
16:00+31ююз3462100 0.5 10051061
19:00+27ююв248374 1.2 100761
22:00+25ю388895 1.8 1009221
25 мая, ср
ср2501:00+23зюз51294100 4.8 1009497
04:00+24з1593100 0.4 1008241
07:00+24ююв2291100 0.4 1009151
10:00+27зюз3475100 0.2 1010884
13:00+28з3368100 0.4 1007961
16:00+30зюз346497 0.0 10051134
19:00+26юз2279100 0.0 100634
22:00+26юз1179100 0.1 100814
26 мая, чт
чт2601:00+24юз2289100 1.8 100625
04:00+24зюз149499 2.6 1005136
07:00+26юз268795 3.6 1006298
10:00+30юз457172 1.6 1006808
13:00+32зюз456057 3.3 10031471
16:00+31зюз356489 0.5 1001751
19:00+28ю2273100 0.8 100229
22:00+27юз247487 0.0 100496
27 мая, пт
пт2701:00+25ююз3685100 1.4 1003152
04:00+24ююз388680 0.0 1002257
07:00+26юз3983100 0.0 1004479
10:00+30юз566587 0.0 10041067
13:00+33юз5654100 0.2 10011814
16:00+30ююз3566100 0.0 1000146
19:00+28ююз2870100 0.1 1001212
22:00+26юз41180100 0.7 1003372
28 мая, сб
сб2801:00+25юз61286100 0.8 1002409
04:00+25ююз4985100 0.7 1002451
07:00+25ююз4887100 0.8 1004491
10:00+29ююз5668100 0.0 10051132
13:00+31ююз575898 0.0 10021564
16:00+30ююз4765100 0.3 1000400
19:00+27ю4876100 1.3 1002169
22:00+26ю3983100 1.4 1004249